EW7144 Weather Reports


Display with metric or nautical units.
time (UTC)temp
F
wind
direction
speed
MPH
gust
MPH
rain 1hr
in
rain 24hr
in
rain mn
in
humidity
%
barometer
mb
20260831201405 48 239 4.0 12.0 0.00 0.02 0.00 77 1012.1
20260831195904 47 202 6.0 15.0 0.00 0.02 0.00 78 1011.8
20260831195405 47 205 5.0 18.0 0.00 0.02 0.00 78 1011.9
20260831194905 47 219 5.0 13.0 0.00 0.02 0.00 78 1011.8
20260831194404 47 271 5.0 12.0 0.00 0.02 0.00 78 1011.7
20260831193905 47 220 7.0 16.0 0.00 0.02 0.00 77 1011.7
20260831192904 47 251 6.0 15.0 0.00 0.02 0.00 77 1011.6
20260831192404 47 212 3.0 12.0 0.00 0.02 0.00 77 1011.6
20260831191905 47 308 4.0 12.0 0.00 0.02 0.00 77 1011.4
20260831191404 46 205 6.0 14.0 0.00 0.02 0.00 77 1011.3
20260831185904 46 289 4.0 12.0 0.00 0.02 0.00 76 1010.8
20260831185405 46 331 3.0 7.0 0.00 0.02 0.00 76 1010.7
20260831184905 47 218 3.0 10.0 0.00 0.02 0.00 75 1010.5
20260831184405 47 250 6.0 14.0 0.00 0.02 0.00 75 1010.6
20260831183905 47 199 8.0 18.0 0.00 0.02 0.00 75 1010.6
20260831183405 47 208 7.0 16.0 0.00 0.02 0.00 75 1010.6
20260831182905 46 217 6.0 17.0 0.00 0.02 0.00 76 1010.2
20260831182404 46 203 9.0 20.0 0.00 0.02 0.00 76 1010.2
20260831181404 46 218 7.0 14.0 0.00 0.02 0.00 76 1010.1
20260831180904 46 212 6.0 17.0 0.00 0.02 0.00 77 1010.0
20260831180405 46 220 6.0 15.0 0.00 0.02 0.00 77 1009.8
20260831175904 46 235 7.0 16.0 0.00 0.02 0.00 78 1009.7
20260831175405 46 210 5.0 15.0 0.00 0.02 0.00 78 1009.7
20260831174904 46 247 5.0 13.0 0.00 0.02 0.00 78 1009.8
20260831174404 46 216 6.0 12.0 0.00 0.02 0.00 78 1009.9
20260831173904 46 227 5.0 12.0 0.00 0.02 0.00 78 1009.7
20260831173405 46 36 4.0 12.0 0.00 0.02 0.00 78 1009.7
20260831172905 46 215 5.0 13.0 0.00 0.02 0.00 78 1009.7
20260831172404 46 263 5.0 14.0 0.00 0.02 0.00 78 1009.6
20260831171904 46 290 5.0 12.0 0.00 0.02 0.00 78 1009.6
20260831171405 46 254 5.0 12.0 0.00 0.02 0.00 78 1009.5
20260831170905 46 232 4.0 12.0 0.00 0.02 0.00 79 1009.5
20260831170404 46 206 6.0 12.0 0.00 0.02 0.00 79 1009.5
20260831165904 46 199 6.0 16.0 0.00 0.02 0.00 79 1009.4
20260831165405 46 227 5.0 12.0 0.00 0.02 0.00 79 1009.2
20260831164904 46 230 6.0 16.0 0.00 0.02 0.00 79 1009.3
20260831163904 46 233 7.0 17.0 0.00 0.02 0.00 80 1009.2
20260831162904 46 201 8.0 20.0 0.00 0.02 0.00 81 1009.0
20260831162405 45 223 5.0 17.0 0.00 0.02 0.00 81 1009.0
20260831161904 45 215 5.0 14.0 0.00 0.02 0.00 81 1009.1
20260831160904 45 264 6.0 13.0 0.00 0.02 0.00 81 1009.0
20260831160405 45 260 5.0 14.0 0.00 0.02 0.00 82 1008.9
20260831154904 45 250 2.0 12.0 0.00 0.02 0.00 82 1008.8
20260831154405 45 215 7.0 14.0 0.00 0.02 0.00 82 1008.8
20260831153905 46 198 7.0 20.0 0.00 0.02 0.00 82 1008.7
20260831153404 46 214 8.0 16.0 0.00 0.02 0.00 81 1008.7
20260831152904 47 219 8.0 25.0 0.00 0.02 0.00 80 1008.7
20260831152404 47 260 11.0 29.0 0.00 0.02 0.00 77 1008.6
20260831151904 47 207 7.0 18.0 0.00 0.02 0.00 75 1008.8
20260831151404 47 238 6.0 16.0 0.00 0.02 0.00 76 1008.5
20260831150905 47 237 9.0 18.0 0.00 0.02 0.00 76 1008.5
20260831150405 47 241 8.0 20.0 0.00 0.02 0.00 76 1008.4
20260831145904 47 206 7.0 17.0 0.00 0.02 0.00 76 1008.5
20260831145405 47 227 6.0 20.0 0.00 0.02 0.00 76 1008.5
20260831144905 47 195 9.0 20.0 0.00 0.02 0.00 76 1008.5
20260831143905 47 186 7.0 18.0 0.00 0.02 0.00 76 1008.5
20260831142904 47 237 9.0 18.0 0.00 0.02 0.00 74 1008.4
20260831142404 47 210 9.0 18.0 0.00 0.02 0.00 75 1008.3
20260831141904 47 336 5.0 20.0 0.00 0.02 0.00 75 1008.5
20260831141405 47 218 6.0 16.0 0.00 0.02 0.00 75 1008.4
20260831140905 47 202 7.0 15.0 0.00 0.02 0.00 75 1008.6
20260831140404 47 158 5.0 18.0 0.00 0.02 0.00 74 1008.6
20260831135905 47 205 8.0 20.0 0.00 0.02 0.00 74 1008.8
20260831135404 47 215 9.0 23.0 0.00 0.02 0.00 74 1008.7
20260831134905 47 206 6.0 17.0 0.00 0.02 0.00 73 1008.4
20260831134404 47 216 8.0 22.0 0.00 0.02 0.00 73 1008.4
20260831133404 47 209 7.0 17.0 0.00 0.02 0.00 73 1008.1
20260831132905 48 220 8.0 16.0 0.00 0.02 0.00 72 1008.0
20260831132404 48 212 9.0 26.0 0.00 0.02 0.00 72 1007.8
20260831130904 48 212 8.0 22.0 0.00 0.02 0.00 70 1007.8
20260831130404 48 188 8.0 17.0 0.00 0.02 0.00 70 1007.6
20260831125904 48 198 10.0 23.0 0.01 0.02 0.00 69 1007.4
20260831124905 49 201 9.0 24.0 0.01 0.02 0.00 69 1007.2
20260831124405 49 214 9.0 23.0 0.01 0.02 0.00 70 1006.9
20260831123404 49 214 11.0 22.0 0.01 0.02 0.00 70 1007.1
20260831122904 49 206 9.0 26.0 0.01 0.02 0.00 71 1007.1
20260831122405 49 300 7.0 20.0 0.01 0.02 0.00 72 1007.0
20260831121905 49 205 9.0 18.0 0.01 0.02 0.00 72 1006.8
20260831121404 49 207 10.0 22.0 0.01 0.02 0.00 73 1006.8
20260831120405 49 201 9.0 16.0 0.01 0.02 0.00 75 1006.8
20260831115904 49 252 7.0 20.0 0.00 0.02 0.01 74 1006.7
20260831115405 49 224 9.0 24.0 0.00 0.02 0.01 74 1006.7
20260831114404 49 201 8.0 23.0 0.00 0.02 0.01 74 1006.7
20260831113904 49 205 7.0 20.0 0.00 0.02 0.01 74 1006.6
20260831113404 49 209 9.0 21.0 0.00 0.02 0.01 74 1006.4
20260831112904 49 236 7.0 26.0 0.00 0.02 0.01 74 1006.3
20260831112404 49 244 7.0 20.0 0.00 0.02 0.01 74 1006.2
20260831111404 49 227 7.0 20.0 0.00 0.02 0.01 75 1006.2
20260831110904 49 182 7.0 16.0 0.00 0.02 0.01 75 1006.2
20260831110409 49 277 10.0 22.0 0.00 0.02 0.01 75 1006.4
20260831105904 49 210 10.0 23.0 0.00 0.02 0.01 76 1006.1
20260831105406 49 201 10.0 17.0 0.00 0.02 0.01 76 1006.0
20260831104405 49 255 10.0 20.0 0.00 0.02 0.01 76 1005.9
20260831103904 49 235 6.0 14.0 0.00 0.02 0.01 76 1005.7
20260831103405 49 211 9.0 23.0 0.00 0.02 0.01 76 1005.8
20260831101404 50 178 6.0 20.0 0.00 0.02 0.01 75 1005.7
20260831100905 50 201 7.0 22.0 0.00 0.02 0.01 74 1005.7
20260831100404 50 193 12.0 20.0 0.00 0.02 0.01 74 1005.5
20260831095904 50 217 12.0 23.0 0.00 0.02 0.01 73 1005.3
20260831095405 50 224 7.0 21.0 0.00 0.02 0.01 74 1005.2
20260831094905 50 215 9.0 20.0 0.00 0.02 0.01 73 1005.1
20260831094404 51 210 13.0 35.0 0.00 0.02 0.01 73 1005.0
20260831093404 51 211 12.0 32.0 0.00 0.02 0.01 72 1004.8
20260831092904 52 193 10.0 23.0 0.00 0.02 0.01 71 1004.7
20260831092408 52 206 17.0 35.0 0.00 0.02 0.01 72 1004.4
20260831091906 52 214 10.0 29.0 0.00 0.02 0.01 71 1004.3
20260831091406 52 255 12.0 23.0 0.00 0.02 0.01 72 1004.1
20260831090905 51 216 13.0 26.0 0.00 0.02 0.01 72 1004.1
20260831090405 51 203 13.0 26.0 0.00 0.02 0.01 73 1004.0
20260831085905 51 304 12.0 26.0 0.00 0.02 0.01 74 1004.0
20260831085405 51 191 10.0 25.0 0.00 0.02 0.01 74 1003.8
20260831084905 51 198 14.0 28.0 0.00 0.02 0.01 74 1003.8
20260831084405 51 223 13.0 32.0 0.00 0.02 0.01 74 1003.7
20260831083404 50 241 12.0 26.0 0.00 0.02 0.01 78 1003.6
20260831082904 50 293 9.0 26.0 0.00 0.02 0.01 79 1003.7
20260831081904 50 218 12.0 32.0 0.01 0.02 0.01 80 1003.6
20260831081408 50 303 12.0 31.0 0.01 0.02 0.01 79 1003.4
20260831080905 51 282 13.0 26.0 0.01 0.02 0.01 78 1003.6
20260831080405 51 244 10.0 26.0 0.01 0.02 0.01 79 1003.5
20260831075904 51 228 13.0 33.0 0.01 0.02 0.01 79 1003.4
20260831074904 50 215 11.0 30.0 0.01 0.02 0.01 80 1003.2
20260831074405 50 215 9.0 25.0 0.01 0.02 0.01 81 1003.1
20260831073405 50 217 11.0 24.0 0.01 0.02 0.01 82 1003.0
20260831072905 50 212 13.0 28.0 0.01 0.02 0.01 81 1002.9
20260831072404 51 221 12.0 26.0 0.01 0.02 0.01 80 1002.9
20260831071905 50 205 13.0 25.0 0.00 0.02 0.00 80 1002.7
20260831071404 50 213 14.0 26.0 0.00 0.02 0.00 81 1002.7
20260831070905 49 235 13.0 35.0 0.00 0.02 0.00 82 1002.7
20260831065404 49 235 13.0 28.0 0.00 0.02 0.00 81 1002.7
20260831064405 50 247 16.0 33.0 0.00 0.02 0.00 79 1002.8
20260831063904 51 222 13.0 30.0 0.00 0.02 0.00 76 1002.8
20260831063404 51 211 9.0 23.0 0.00 0.02 0.00 75 1002.8
20260831062904 51 193 13.0 26.0 0.00 0.02 0.00 75 1002.7
20260831062404 51 225 13.0 26.0 0.00 0.02 0.00 74 1002.5
20260831061905 52 202 12.0 25.0 0.00 0.02 0.00 73 1002.5
20260831061404 52 203 20.0 36.0 0.00 0.02 0.00 72 1002.3
20260831060906 52 212 16.0 33.0 0.00 0.02 0.00 71 1002.5
20260831060405 53 220 16.0 32.0 0.00 0.02 0.00 71 1002.7
20260831055904 53 268 12.0 29.0 0.00 0.02 0.00 71 1002.4
20260831055404 53 202 15.0 29.0 0.00 0.02 0.00 71 1002.1
20260831054904 53 205 14.0 35.0 0.00 0.02 0.00 70 1002.1
20260831054404 53 207 16.0 35.0 0.00 0.02 0.00 70 1001.9
20260831053904 53 210 14.0 28.0 0.00 0.02 0.00 70 1001.7
20260831053404 54 218 15.0 28.0 0.00 0.02 0.00 69 1001.9
20260831052904 54 218 16.0 33.0 0.00 0.02 0.00 69 1001.8
20260831052404 54 219 15.0 33.0 0.00 0.02 0.00 70 1001.9
20260831051904 54 229 14.0 30.0 0.00 0.02 0.00 69 1002.0
20260831051404 54 216 15.0 35.0 0.00 0.02 0.00 69 1001.9
20260831050405 55 212 13.0 31.0 0.00 0.02 0.00 66 1001.9
20260831045904 55 195 18.0 33.0 0.00 0.02 0.00 67 1001.6
20260831045406 55 202 16.0 35.0 0.00 0.02 0.00 68 1001.7
20260831044904 55 198 16.0 29.0 0.00 0.02 0.00 70 1001.6
20260831044405 55 222 16.0 38.0 0.00 0.02 0.00 70 1001.7
20260831043904 55 210 17.0 43.0 0.00 0.02 0.00 71 1001.6
20260831043404 55 206 17.0 33.0 0.00 0.02 0.00 71 1001.4
20260831042904 55 204 17.0 33.0 0.00 0.02 0.00 71 1001.4
20260831042405 55 221 16.0 32.0 0.00 0.02 0.00 71 1001.5
20260831041904 56 231 14.0 25.0 0.00 0.02 0.00 71 1001.3
20260831041404 55 221 14.0 29.0 0.00 0.02 0.00 71 1001.4
20260831040905 55 202 16.0 36.0 0.00 0.02 0.00 70 1001.5
20260831040406 55 266 17.0 36.0 0.00 0.02 0.00 71 1001.3
20260831035905 55 249 16.0 36.0 0.00 0.02 0.00 73 1001.5
20260831035405 55 253 15.0 30.0 0.00 0.02 0.00 74 1001.6
20260831034904 55 221 13.0 23.0 0.00 0.02 0.00 74 1001.4
20260831034404 55 216 13.0 31.0 0.00 0.02 0.00 73 1001.4
20260831033904 55 217 14.0 35.0 0.00 0.02 0.00 73 1001.3
20260831033404 55 224 14.0 43.0 0.00 0.02 0.00 74 1001.4
20260831031404 55 213 14.0 37.0 0.00 0.02 0.00 74 1001.4
20260831030404 54 250 18.0 35.0 0.00 0.02 0.00 76 1001.2
20260831025404 55 216 14.0 39.0 0.00 0.02 0.00 76 1001.4
20260831024904 55 259 17.0 31.0 0.00 0.02 0.00 73 1001.2
20260831024405 56 259 16.0 35.0 0.00 0.02 0.00 69 1001.1
20260831022904 57 234 14.0 35.0 0.00 0.02 0.00 69 1000.7
20260831022404 58 207 17.0 35.0 0.00 0.02 0.00 69 1000.6
20260831021904 57 227 13.0 32.0 0.00 0.02 0.00 68 1000.7
20260831021404 58 218 16.0 30.0 0.00 0.02 0.00 67 1000.4
20260831020904 57 228 16.0 36.0 0.00 0.02 0.00 68 1000.6
20260831020404 57 214 14.0 44.0 0.00 0.02 0.00 69 1000.4
20260831015904 57 209 18.0 35.0 0.00 0.02 0.00 68 1000.5
20260831015404 57 218 17.0 33.0 0.00 0.02 0.00 68 1000.6
20260831014905 57 223 17.0 45.0 0.00 0.02 0.00 67 1000.3
20260831014404 58 213 16.0 35.0 0.00 0.02 0.00 69 1000.5
20260831013904 57 208 16.0 32.0 0.00 0.02 0.00 72 1000.7
20260831013404 57 198 14.0 31.0 0.00 0.02 0.00 73 1000.6
20260831012904 56 321 18.0 39.0 0.00 0.02 0.00 71 1000.3
20260831012405 56 228 18.0 49.0 0.00 0.02 0.00 71 1000.1
20260831011904 56 228 17.0 43.0 0.00 0.02 0.00 71 1000.2
20260831011404 56 213 15.0 33.0 0.00 0.02 0.00 73 1000.3
20260831010904 55 253 13.0 30.0 0.00 0.02 0.00 74 1000.3
20260831010404 54 300 18.0 38.0 0.00 0.02 0.00 76 1000.3
20260831005904 55 201 16.0 39.0 0.00 0.02 0.00 79 1000.5
20260831005405 56 287 16.0 33.0 0.00 0.02 0.00 77 1000.7
20260831004906 57 237 12.0 29.0 0.00 0.02 0.00 77 1000.6
20260831004405 57 274 13.0 26.0 0.00 0.02 0.00 76 1000.4
20260831003904 57 252 12.0 32.0 0.00 0.02 0.00 76 1000.6
20260831003404 57 257 12.0 32.0 0.00 0.02 0.00 76 1000.5
20260831002904 57 211 16.0 39.0 0.00 0.02 0.00 75 1000.5
20260831002405 57 300 16.0 39.0 0.00 0.02 0.00 75 1000.5
20260831001404 57 211 13.0 30.0 0.00 0.02 0.00 76 1001.0
20260831000905 57 270 14.0 31.0 0.00 0.02 0.00 77 1001.1
20260831000406 57 209 16.0 25.0 0.00 0.02 0.00 76 1000.9
20260830235905 57 274 14.0 30.0 0.00 0.02 0.00 76 1000.9
20260830235404 57 247 13.0 28.0 0.00 0.02 0.00 75 1000.7
20260830234904 57 293 18.0 35.0 0.00 0.02 0.00 73 1000.9
20260830234404 57 214 12.0 35.0 0.00 0.02 0.00 74 1000.8
20260830233904 57 304 15.0 29.0 0.00 0.02 0.00 73 1000.9
20260830233405 57 216 13.0 33.0 0.00 0.02 0.00 73 1000.8
20260830232904 57 232 12.0 26.0 0.00 0.02 0.00 73 1000.9
20260830232404 57 256 17.0 39.0 0.00 0.02 0.00 73 1000.9
20260830231904 56 209 14.0 29.0 0.00 0.02 0.00 75 1000.9
20260830231404 56 218 13.0 37.0 0.00 0.02 0.00 76 1000.9
20260830230408 56 265 16.0 33.0 0.00 0.02 0.00 74 1000.8
20260830225905 57 225 15.0 32.0 0.00 0.02 0.00 73 1000.9
20260830225405 57 235 13.0 26.0 0.00 0.02 0.00 73 1000.9
20260830224904 57 244 12.0 25.0 0.00 0.02 0.00 72 1001.0
20260830224404 56 206 16.0 30.0 0.00 0.02 0.00 72 1000.9
20260830223905 56 226 16.0 35.0 0.00 0.02 0.00 72 1001.0
20260830223405 56 207 12.0 36.0 0.00 0.02 0.00 73 1001.1
20260830222904 56 198 18.0 37.0 0.00 0.02 0.00 73 1001.1
20260830222405 56 202 17.0 31.0 0.00 0.02 0.00 75 1000.9
20260830221904 56 231 16.0 28.0 0.00 0.02 0.00 75 1000.8
20260830221405 56 242 17.0 26.0 0.00 0.02 0.00 75 1001.0
20260830220904 56 226 17.0 36.0 0.00 0.02 0.00 75 1000.7
20260830220405 56 248 16.0 38.0 0.00 0.02 0.00 76 1000.6
20260830215904 56 218 16.0 36.0 0.00 0.02 0.00 75 1000.5
20260830215404 55 232 14.0 26.0 0.00 0.02 0.00 75 1000.4
20260830214905 56 203 14.0 26.0 0.00 0.02 0.00 75 1001.0
20260830214404 56 246 12.0 32.0 0.00 0.02 0.00 75 1000.9
20260830213905 56 214 12.0 36.0 0.00 0.02 0.00 74 1001.1
20260830213405 56 299 16.0 37.0 0.00 0.02 0.00 73 1001.0
20260830212904 55 202 14.0 31.0 0.00 0.02 0.00 74 1000.9
20260830212404 55 199 13.0 28.0 0.00 0.02 0.00 75 1001.4
20260830211404 54 213 12.0 25.0 0.00 0.02 0.00 78 1001.3
20260830210904 54 243 9.0 28.0 0.00 0.02 0.00 79 1001.4
20260830210404 54 212 14.0 32.0 0.00 0.02 0.00 79 1001.5
20260830205905 55 210 15.0 33.0 0.00 0.02 0.00 77 1001.5
20260830205404 55 207 12.0 36.0 0.00 0.02 0.00 76 1001.2
20260830204904 55 224 16.0 35.0 0.00 0.02 0.00 76 1001.6
20260830204404 55 211 13.0 37.0 0.00 0.02 0.00 75 1001.5
20260830203904 55 215 9.0 30.0 0.00 0.02 0.00 75 1001.6
20260830203405 55 258 13.0 30.0 0.00 0.02 0.00 75 1001.7
20260830202904 54 199 10.0 30.0 0.00 0.02 0.00 75 1001.6
20260830202405 54 176 12.0 30.0 0.00 0.02 0.00 76 1001.6
20260830201905 54 188 13.0 33.0 0.00 0.02 0.00 77 1001.5